• In Kazakhstan
  • List of Countries
  • For 7 days
  • Water Temperature
  • Weather Map
  • News
  • Weather Widgets
  • user-avatar
    Login

    Hourly Weather Cobija

    Today, 4 June, Thursday

    Time Temperature Precipitation Wind Pressure Humidity
    00:00 +20°C° 0 mm 0 mps 739 mmHg 99%
    01:00 +20°C° 0 mm 0 mps 739 mmHg 99%
    02:00 +20°C° 0.1 mm 0 mps 739 mmHg 99%
    03:00 +19°C° 0.1 mm 0 mps 739 mmHg 99%
    04:00 +21°C° 0.1 mm 1 mps 739 mmHg 99%
    05:00 +20°C° 0 mm 0 mps 739 mmHg 98%
    06:00 +20°C° 0 mm 0 mps 740 mmHg 96%
    07:00 +21°C° 0 mm 0 mps 740 mmHg 94%
    08:00 +23°C° 0 mm 0 mps 741 mmHg 84%
    09:00 +26°C° 0 mm 0 mps 741 mmHg 74%
    10:00 +28°C° 0 mm 0 mps 742 mmHg 64%
    11:00 +30°C° 0.1 mm 1 mps 741 mmHg 67%
    12:00 +30°C° 0.1 mm 1 mps 740 mmHg 69%
    13:00 +30°C° 0.1 mm 1 mps 739 mmHg 71%
    14:00 +27°C° 1.1 mm 0 mps 739 mmHg 78%
    15:00 +26°C° 1.1 mm 0 mps 739 mmHg 85%
    16:00 +26°C° 1.1 mm 0 mps 738 mmHg 92%
    17:00 +24°C° 0.6 mm 0 mps 739 mmHg 94%
    18:00 +23°C° 0.6 mm 0 mps 739 mmHg 95%
    19:00 +22°C° 0.6 mm 0 mps 740 mmHg 97%
    20:00 +22°C° 0 mm 0 mps 740 mmHg 97%
    21:00 +22°C° 0 mm 0 mps 740 mmHg 98%
    22:00 +22°C° 0 mm 0 mps 741 mmHg 98%
    23:00 +22°C° 0 mm 0 mps 740 mmHg 98%

    Tomorrow, 5 June, Friday

    Time Temperature Precipitation Wind Pressure Humidity
    00:00 +22°C° 0 mm 0 mps 740 mmHg 99%
    01:00 +22°C° 0 mm 0 mps 740 mmHg 99%
    02:00 +21°C° 0 mm 0 mps 740 mmHg 99%
    03:00 +21°C° 0 mm 0 mps 740 mmHg 99%
    04:00 +21°C° 0 mm 0 mps 740 mmHg 99%
    05:00 +21°C° 0 mm 0 mps 740 mmHg 99%
    06:00 +22°C° 0 mm 0 mps 741 mmHg 99%
    07:00 +22°C° 0 mm 0 mps 741 mmHg 99%
    08:00 +25°C° 0 mm 1 mps 741 mmHg 95%
    09:00 +26°C° 0 mm 1 mps 742 mmHg 92%
    10:00 +26°C° 0 mm 1 mps 742 mmHg 88%
    11:00 +27°C° 0.1 mm 1 mps 741 mmHg 83%
    12:00 +28°C° 0.1 mm 1 mps 741 mmHg 77%
    13:00 +29°C° 0.1 mm 1 mps 740 mmHg 72%
    14:00 +29°C° 0.1 mm 1 mps 740 mmHg 73%
    15:00 +29°C° 0.1 mm 1 mps 739 mmHg 74%
    16:00 +29°C° 0.1 mm 1 mps 739 mmHg 75%
    17:00 +27°C° 0.1 mm 1 mps 739 mmHg 82%
    18:00 +26°C° 0.1 mm 1 mps 739 mmHg 88%
    19:00 +23°C° 0.1 mm 0 mps 740 mmHg 95%
    20:00 +22°C° 0 mm 0 mps 740 mmHg 95%
    21:00 +22°C° 0 mm 0 mps 740 mmHg 96%
    22:00 +22°C° 0 mm 0 mps 741 mmHg 97%
    23:00 +21°C° 0 mm 0 mps 741 mmHg 97%

    Day after tomorrow, 6 June, Saturday

    Time Temperature Precipitation Wind Pressure Humidity
    00:00 +21°C° 0 mm 0 mps 740 mmHg 98%
    01:00 +21°C° 0 mm 0 mps 740 mmHg 98%
    02:00 +21°C° 0 mm 0 mps 740 mmHg 98%
    03:00 +21°C° 0 mm 0 mps 740 mmHg 98%
    04:00 +21°C° 0 mm 0 mps 740 mmHg 98%
    05:00 +21°C° 0 mm 0 mps 740 mmHg 97%
    06:00 +21°C° 0 mm 0 mps 741 mmHg 95%
    07:00 +22°C° 0 mm 0 mps 741 mmHg 94%
    08:00 +22°C° 0 mm 0 mps 742 mmHg 92%
    09:00 +23°C° 0 mm 0 mps 742 mmHg 91%
    10:00 +23°C° 0 mm 0 mps 742 mmHg 89%
    11:00 +27°C° 0 mm 1 mps 741 mmHg 81%
    12:00 +29°C° 0 mm 1 mps 741 mmHg 73%
    13:00 +30°C° 0 mm 1 mps 740 mmHg 66%
    14:00 +30°C° 0 mm 1 mps 739 mmHg 66%
    15:00 +30°C° 0 mm 1 mps 739 mmHg 67%
    16:00 +30°C° 0 mm 1 mps 738 mmHg 67%
    17:00 +28°C° 0 mm 1 mps 738 mmHg 76%
    18:00 +26°C° 0 mm 1 mps 739 mmHg 84%
    19:00 +25°C° 0 mm 1 mps 739 mmHg 93%
    20:00 +24°C° 0 mm 1 mps 740 mmHg 95%
    21:00 +22°C° 0 mm 0 mps 740 mmHg 97%
    22:00 +21°C° 0 mm 0 mps 740 mmHg 99%
    23:00 +21°C° 0 mm 0 mps 740 mmHg 99%

    7 June, Sunday

    Time Temperature Precipitation Wind Pressure Humidity
    00:00 +21°C° 0 mm 0 mps 740 mmHg 99%
    01:00 +21°C° 0 mm 0 mps 740 mmHg 99%
    02:00 +21°C° 0 mm 0 mps 740 mmHg 99%
    03:00 +20°C° 0 mm 0 mps 740 mmHg 99%
    04:00 +20°C° 0 mm 0 mps 740 mmHg 99%
    05:00 +21°C° 0 mm 0 mps 740 mmHg 96%
    06:00 +21°C° 0 mm 0 mps 741 mmHg 94%
    07:00 +22°C° 0 mm 0 mps 741 mmHg 91%
    08:00 +25°C° 0 mm 0 mps 742 mmHg 81%
    09:00 +28°C° 0 mm 0 mps 742 mmHg 70%
    10:00 +30°C° 0 mm 0 mps 742 mmHg 59%
    11:00 +31°C° 0 mm 0 mps 741 mmHg 55%
    12:00 +32°C° 0 mm 0 mps 741 mmHg 51%
    13:00 +33°C° 0 mm 0 mps 740 mmHg 47%
    14:00 +32°C° 0 mm 0 mps 739 mmHg 53%
    15:00 +31°C° 0 mm 0 mps 738 mmHg 58%
    16:00 +30°C° 0 mm 0 mps 738 mmHg 64%
    17:00 +28°C° 0 mm 0 mps 738 mmHg 68%
    18:00 +26°C° 0 mm 0 mps 738 mmHg 73%
    19:00 +25°C° 0 mm 0 mps 739 mmHg 77%
    20:00 +24°C° 0 mm 0 mps 739 mmHg 79%
    21:00 +24°C° 0 mm 0 mps 739 mmHg 81%
    22:00 +23°C° 0 mm 0 mps 740 mmHg 83%
    23:00 +23°C° 0 mm 0 mps 740 mmHg 85%

    8 June, Monday

    Time Temperature Precipitation Wind Pressure Humidity
    00:00 +23°C° 0 mm 0 mps 739 mmHg 86%
    01:00 +22°C° 0 mm 0 mps 739 mmHg 88%
    02:00 +22°C° 0 mm 0 mps 739 mmHg 88%
    03:00 +22°C° 0 mm 0 mps 739 mmHg 89%
    04:00 +22°C° 0 mm 0 mps 739 mmHg 90%
    05:00 +22°C° 0 mm 0 mps 740 mmHg 88%
    06:00 +23°C° 0 mm 0 mps 740 mmHg 86%
    07:00 +24°C° 0 mm 0 mps 741 mmHg 84%
    08:00 +26°C° 0 mm 0 mps 741 mmHg 74%
    09:00 +29°C° 0 mm 0 mps 741 mmHg 65%
    10:00 +33°C° 0 mm 1 mps 741 mmHg 55%
    11:00 +32°C° 0 mm 0 mps 740 mmHg 51%
    12:00 +33°C° 0 mm 0 mps 740 mmHg 48%
    13:00 +34°C° 0 mm 0 mps 739 mmHg 44%
    14:00 +33°C° 0 mm 0 mps 738 mmHg 51%
    15:00 +31°C° 0 mm 0 mps 738 mmHg 57%
    16:00 +30°C° 0 mm 0 mps 737 mmHg 64%
    17:00 +28°C° 0 mm 0 mps 737 mmHg 70%
    18:00 +26°C° 0 mm 0 mps 738 mmHg 77%
    19:00 +25°C° 0 mm 0 mps 738 mmHg 84%
    20:00 +24°C° 0 mm 0 mps 738 mmHg 85%
    21:00 +24°C° 0 mm 0 mps 739 mmHg 87%
    22:00 +24°C° 0 mm 0 mps 739 mmHg 88%
    23:00 +23°C° 0 mm 0 mps 739 mmHg 88%

    9 June, Tuesday

    Time Temperature Precipitation Wind Pressure Humidity
    00:00 +23°C° 0 mm 0 mps 739 mmHg 89%
    01:00 +25°C° 0 mm 1 mps 738 mmHg 89%
    02:00 +25°C° 0 mm 1 mps 738 mmHg 90%
    03:00 +24°C° 0 mm 1 mps 738 mmHg 91%
    04:00 +24°C° 0 mm 1 mps 738 mmHg 93%
    05:00 +25°C° 0 mm 1 mps 738 mmHg 91%
    06:00 +25°C° 0 mm 1 mps 739 mmHg 88%
    07:00 +26°C° 0 mm 1 mps 739 mmHg 86%
    08:00 +28°C° 0 mm 1 mps 739 mmHg 77%
    09:00 +30°C° 0 mm 1 mps 739 mmHg 68%
    10:00 +32°C° 0 mm 2 mps 740 mmHg 59%
    11:00 +34°C° 0 mm 2 mps 739 mmHg 55%
    12:00 +35°C° 0 mm 2 mps 738 mmHg 51%
    13:00 +35°C° 0 mm 1 mps 737 mmHg 47%
    14:00 +34°C° 0 mm 1 mps 737 mmHg 51%
    15:00 +33°C° 0 mm 1 mps 736 mmHg 55%
    16:00 +33°C° 0 mm 1 mps 735 mmHg 59%
    17:00 +31°C° 0 mm 1 mps 735 mmHg 65%
    18:00 +27°C° 0 mm 0 mps 736 mmHg 71%
    19:00 +25°C° 0 mm 0 mps 736 mmHg 77%
    20:00 +25°C° 0 mm 0 mps 736 mmHg 78%
    21:00 +26°C° 0 mm 1 mps 736 mmHg 80%
    22:00 +26°C° 0 mm 1 mps 737 mmHg 82%
    23:00 +25°C° 0 mm 1 mps 736 mmHg 84%
    Show more